Location: Saluda
(35.2377°N, 82.3468°W)
Time: 19:36:39
(UTC+00:00)

Vanguard 3 - Pass Details

Date: 13 October 2022
Orbit: 509 x 3255 km, 33.3° (Epoch: 01 December)

Event Time Altitude Azimuth Distance (km) Brightness Sun altitude
Rises 14:14:06 0° 273° (W) 2,601 9.3 29.3°
Reaches altitude 10° 14:16:10 10° 267° (W) 1,741 8.5 29.6°
Maximum altitude 14:19:47 48° 192° (SSW) 768 7.7 30.2°
Drops below altitude 10° 14:24:34 10° 118° (ESE) 2,299 11.0 31.0°
Sets 14:27:40 0° 113° (ESE) 3,567 11.5 31.5°
